Time,TemperatureF,DewpointF,PressureIn,WindDirection,WindDirectionDegrees,WindSpeedMPH,WindSpeedGustMPH,Humidity,HourlyPrecipIn,Conditions,Clouds,dailyrainin,SoftwareType,DateUTC
2013-07-12 00:00:00,78.1,73.6,29.95,East,92,0.0,0.0,86,0.00,,,0.01,WeatherCatV1.15B25,2013-07-12 04:00:00,
2013-07-12 00:01:00,78.0,73.8,29.95,East,92,0.0,0.0,87,0.00,,,0.00,WeatherCatV1.15B25,2013-07-12 04:01:00,
2013-07-12 00:06:00,78.0,73.8,29.95,East,90,0.0,0.0,87,0.00,,,0.00,WeatherCatV1.15B25,2013-07-12 04:06:00,
2013-07-12 00:11:00,77.9,73.7,29.95,East,90,0.0,0.0,87,0.00,,,0.00,WeatherCatV1.15B25,2013-07-12 04:11:00,
2013-07-12 00:16:00,77.8,73.6,29.95,East,90,0.0,0.0,87,0.00,,,0.00,WeatherCatV1.15B25,2013-07-12 04:16:00,
2013-07-12 00:21:00,77.8,73.6,29.95,East,90,0.0,0.0,87,0.00,,,0.00,WeatherCatV1.15B25,2013-07-12 04:21:00,
2013-07-12 00:26:00,77.6,73.4,29.95,East,90,0.0,0.0,87,0.00,,,0.00,WeatherCatV1.15B25,2013-07-12 04:26:00,
2013-07-12 00:31:00,77.5,73.3,29.95,East,90,0.0,0.0,87,0.00,,,0.00,WeatherCatV1.15B25,2013-07-12 04:31:00,
2013-07-12 00:36:00,77.4,73.2,29.95,East,90,0.0,0.0,87,0.00,,,0.00,WeatherCatV1.15B25,2013-07-12 04:36:00,
2013-07-12 00:41:00,77.3,73.1,29.95,East,90,0.0,0.0,87,0.00,,,0.00,WeatherCatV1.15B25,2013-07-12 04:41:00,
2013-07-12 00:46:00,77.2,73.0,29.94,East,90,0.0,0.0,87,0.00,,,0.00,WeatherCatV1.15B25,2013-07-12 04:46:00,
2013-07-12 00:51:00,77.2,73.0,29.94,East,90,0.0,0.0,87,0.00,,,0.00,WeatherCatV1.15B25,2013-07-12 04:51:00,
2013-07-12 00:56:00,77.1,72.9,29.94,East,90,0.0,0.0,87,0.00,,,0.00,WeatherCatV1.15B25,2013-07-12 04:56:00,
2013-07-12 01:01:00,77.0,73.2,29.94,East,90,0.0,0.0,88,0.00,,,0.00,WeatherCatV1.15B25,2013-07-12 05:01:00,
2013-07-12 01:06:00,77.0,73.2,29.94,East,90,0.0,0.0,88,0.00,,,0.00,WeatherCatV1.15B25,2013-07-12 05:06:00,
2013-07-12 01:10:00,76.9,73.1,29.94,East,90,0.0,0.0,88,0.00,,,0.00,WeatherCatV1.15B25,2013-07-12 05:10:00,
2013-07-12 01:15:00,76.8,73.0,29.94,East,90,1.0,1.0,88,0.00,,,0.00,WeatherCatV1.15B25,2013-07-12 05:15:00,
2013-07-12 01:20:00,76.8,73.0,29.94,East,90,0.0,0.0,88,0.00,,,0.00,WeatherCatV1.15B25,2013-07-12 05:20:00,
2013-07-12 01:25:00,76.7,72.9,29.94,East,90,0.0,0.0,88,0.00,,,0.00,WeatherCatV1.15B25,2013-07-12 05:25:00,
2013-07-12 01:30:00,76.7,72.9,29.94,East,90,0.0,0.0,88,0.00,,,0.00,WeatherCatV1.15B25,2013-07-12 05:30:00,
2013-07-12 01:35:00,76.6,72.8,29.94,East,90,1.0,2.0,88,0.00,,,0.00,WeatherCatV1.15B25,2013-07-12 05:35:00,
2013-07-12 01:40:00,76.6,73.1,29.94,East,90,0.0,0.0,89,0.00,,,0.00,WeatherCatV1.15B25,2013-07-12 05:40:00,
2013-07-12 01:45:00,76.5,73.0,29.94,East,90,0.0,0.0,89,0.00,,,0.00,WeatherCatV1.15B25,2013-07-12 05:45:00,
2013-07-12 01:50:00,76.4,72.9,29.93,East,90,0.0,0.0,89,0.00,,,0.00,WeatherCatV1.15B25,2013-07-12 05:50:00,
2013-07-12 01:55:00,76.3,72.8,29.93,East,90,0.0,0.0,89,0.00,,,0.00,WeatherCatV1.15B25,2013-07-12 05:55:00,
2013-07-12 02:00:00,76.2,72.7,29.93,East,90,0.0,0.0,89,0.00,,,0.00,WeatherCatV1.15B25,2013-07-12 06:00:00,
2013-07-12 02:05:00,76.1,72.6,29.93,East,90,0.0,0.0,89,0.00,,,0.00,WeatherCatV1.15B25,2013-07-12 06:05:00,
2013-07-12 02:10:00,76.0,72.5,29.92,East,90,0.0,0.0,89,0.00,,,0.00,WeatherCatV1.15B25,2013-07-12 06:10:00,
2013-07-12 02:15:00,76.0,72.5,29.92,East,90,0.0,0.0,89,0.00,,,0.00,WeatherCatV1.15B25,2013-07-12 06:15:00,
2013-07-12 02:20:00,76.0,72.5,29.92,East,90,0.0,1.0,89,0.00,,,0.00,WeatherCatV1.15B25,2013-07-12 06:20:00,
2013-07-12 02:25:00,75.9,72.4,29.92,East,90,0.0,0.0,89,0.00,,,0.00,WeatherCatV1.15B25,2013-07-12 06:25:00,
2013-07-12 02:30:00,75.9,72.4,29.92,East,90,0.0,0.0,89,0.00,,,0.00,WeatherCatV1.15B25,2013-07-12 06:30:00,
2013-07-12 02:35:00,75.8,72.6,29.92,East,90,0.0,0.0,90,0.00,,,0.00,WeatherCatV1.15B25,2013-07-12 06:35:00,
2013-07-12 02:40:00,75.8,72.6,29.91,East,90,0.0,0.0,90,0.00,,,0.00,WeatherCatV1.15B25,2013-07-12 06:40:00,
2013-07-12 02:45:00,75.8,72.6,29.91,East,89,0.0,1.0,90,0.00,,,0.00,WeatherCatV1.15B25,2013-07-12 06:45:00,
2013-07-12 02:50:00,75.7,72.5,29.91,East,89,0.0,0.0,90,0.00,,,0.00,WeatherCatV1.15B25,2013-07-12 06:50:00,
2013-07-12 02:55:00,75.7,72.5,29.91,East,89,0.0,0.0,90,0.00,,,0.00,WeatherCatV1.15B25,2013-07-12 06:55:00,
2013-07-12 03:00:00,75.6,72.4,29.91,East,89,0.0,0.0,90,0.00,,,0.00,WeatherCatV1.15B25,2013-07-12 07:00:00,
2013-07-12 03:05:00,75.6,72.4,29.91,East,89,0.0,0.0,90,0.00,,,0.00,WeatherCatV1.15B25,2013-07-12 07:05:00,
2013-07-12 03:10:00,75.6,72.4,29.91,East,89,0.0,1.0,90,0.00,,,0.00,WeatherCatV1.15B25,2013-07-12 07:10:00,
2013-07-12 03:15:00,75.6,72.4,29.91,East,89,0.0,0.0,90,0.00,,,0.00,WeatherCatV1.15B25,2013-07-12 07:15:00,
2013-07-12 03:20:00,75.5,72.4,29.91,East,89,0.0,0.0,90,0.00,,,0.00,WeatherCatV1.15B25,2013-07-12 07:20:00,
2013-07-12 03:25:00,75.5,72.4,29.91,East,89,0.0,0.0,90,0.00,,,0.00,WeatherCatV1.15B25,2013-07-12 07:25:00,
2013-07-12 03:30:00,75.6,72.4,29.90,East,89,0.0,0.0,90,0.00,,,0.00,WeatherCatV1.15B25,2013-07-12 07:30:00,
2013-07-12 03:35:00,75.6,72.4,29.90,East,89,0.0,0.0,90,0.00,,,0.00,WeatherCatV1.15B25,2013-07-12 07:35:00,
2013-07-12 03:40:00,75.6,72.4,29.90,East,89,0.0,0.0,90,0.00,,,0.00,WeatherCatV1.15B25,2013-07-12 07:40:00,
2013-07-12 03:45:00,75.5,72.7,29.90,East,89,0.0,0.0,91,0.00,,,0.00,WeatherCatV1.15B25,2013-07-12 07:45:00,
2013-07-12 03:50:00,75.6,72.8,29.90,East,89,0.0,0.0,91,0.00,,,0.00,WeatherCatV1.15B25,2013-07-12 07:50:00,
2013-07-12 03:55:00,75.7,72.9,29.90,East,89,0.0,1.0,91,0.00,,,0.00,WeatherCatV1.15B25,2013-07-12 07:55:00,
2013-07-12 04:00:00,75.9,73.1,29.90,WSW,244,0.0,0.0,91,0.00,,,0.00,WeatherCatV1.15B25,2013-07-12 08:00:00,
2013-07-12 04:05:00,76.3,73.1,29.90,WSW,241,0.0,0.0,90,0.00,,,0.00,WeatherCatV1.15B25,2013-07-12 08:05:00,
2013-07-12 04:10:00,76.5,73.3,29.90,WSW,241,0.0,0.0,90,0.00,,,0.00,WeatherCatV1.15B25,2013-07-12 08:10:00,
2013-07-12 04:15:00,76.8,73.3,29.90,WSW,240,0.0,0.0,89,0.00,,,0.00,WeatherCatV1.15B25,2013-07-12 08:15:00,
2013-07-12 04:20:00,77.1,73.3,29.90,SW,217,0.0,0.0,88,0.00,,,0.00,WeatherCatV1.15B25,2013-07-12 08:20:00,
2013-07-12 04:25:00,77.5,73.7,29.90,WSW,255,0.0,0.0,88,0.00,,,0.00,WeatherCatV1.15B25,2013-07-12 08:25:00,
2013-07-12 04:28:00,77.7,73.8,29.90,WSW,255,0.0,1.0,88,0.00,,,0.00,WeatherCatV1.15B25,2013-07-12 08:28:00,
2013-07-12 04:33:00,78.0,73.8,29.90,WSW,257,0.0,1.0,87,0.00,,,0.00,WeatherCatV1.15B25,2013-07-12 08:33:00,
2013-07-12 04:38:00,78.3,74.1,29.90,WSW,254,0.0,0.0,87,0.00,,,0.00,WeatherCatV1.15B25,2013-07-12 08:38:00,
2013-07-12 04:43:00,78.5,74.3,29.90,WSW,254,0.0,1.0,87,0.00,,,0.00,WeatherCatV1.15B25,2013-07-12 08:43:00,
2013-07-12 04:48:00,78.6,73.7,29.90,WSW,254,0.0,0.0,85,0.00,,,0.00,WeatherCatV1.15B25,2013-07-12 08:48:00,
2013-07-12 04:53:00,78.7,73.8,29.90,WSW,258,1.0,1.0,85,0.00,,,0.00,WeatherCatV1.15B25,2013-07-12 08:53:00,
2013-07-12 04:58:00,78.8,73.9,29.90,WSW,258,0.0,0.0,85,0.00,,,0.00,WeatherCatV1.15B25,2013-07-12 08:58:00,
2013-07-12 05:03:00,78.9,74.0,29.90,NNE,23,0.0,0.0,85,0.00,,,0.00,WeatherCatV1.15B25,2013-07-12 09:03:00,
2013-07-12 05:08:00,78.8,73.9,29.91,NNE,23,0.0,0.0,85,0.00,,,0.00,WeatherCatV1.15B25,2013-07-12 09:08:00,
2013-07-12 05:13:00,78.7,74.1,29.91,NNE,23,0.0,0.0,86,0.00,,,0.00,WeatherCatV1.15B25,2013-07-12 09:13:00,
2013-07-12 05:18:00,78.5,73.9,29.90,NNE,23,0.0,0.0,86,0.00,,,0.00,WeatherCatV1.15B25,2013-07-12 09:18:00,
2013-07-12 05:23:00,78.3,73.8,29.90,NNE,23,0.0,0.0,86,0.00,,,0.00,WeatherCatV1.15B25,2013-07-12 09:23:00,
2013-07-12 05:28:00,78.2,74.0,29.90,NE,36,0.0,1.0,87,0.00,,,0.00,WeatherCatV1.15B25,2013-07-12 09:28:00,
2013-07-12 05:33:00,78.0,73.8,29.91,NE,36,0.0,0.0,87,0.00,,,0.00,WeatherCatV1.15B25,2013-07-12 09:33:00,
2013-07-12 05:38:00,77.9,74.0,29.91,NE,36,0.0,0.0,88,0.00,,,0.00,WeatherCatV1.15B25,2013-07-12 09:38:00,
2013-07-12 05:43:00,77.9,74.0,29.90,NE,36,0.0,0.0,88,0.00,,,0.00,WeatherCatV1.15B25,2013-07-12 09:43:00,
2013-07-12 05:48:00,77.8,73.9,29.91,NE,36,0.0,0.0,88,0.00,,,0.00,WeatherCatV1.15B25,2013-07-12 09:48:00,
2013-07-12 05:53:00,77.6,73.8,29.90,NE,36,0.0,0.0,88,0.00,,,0.00,WeatherCatV1.15B25,2013-07-12 09:53:00,
2013-07-12 05:58:00,77.5,73.7,29.90,NE,36,1.0,1.0,88,0.00,,,0.00,WeatherCatV1.15B25,2013-07-12 09:58:00,
2013-07-12 06:03:00,77.4,73.9,29.91,NE,46,0.0,1.0,89,0.00,,,0.00,WeatherCatV1.15B25,2013-07-12 10:03:00,
2013-07-12 06:08:00,77.2,73.7,29.91,NE,46,0.0,0.0,89,0.00,,,0.00,WeatherCatV1.15B25,2013-07-12 10:08:00,
2013-07-12 06:13:00,77.1,73.6,29.90,NE,46,0.0,0.0,89,0.00,,,0.00,WeatherCatV1.15B25,2013-07-12 10:13:00,
2013-07-12 06:18:00,77.0,73.5,29.91,NE,46,0.0,0.0,89,0.00,,,0.00,WeatherCatV1.15B25,2013-07-12 10:18:00,
2013-07-12 06:23:00,76.9,73.4,29.91,NE,46,0.0,0.0,89,0.00,,,0.00,WeatherCatV1.15B25,2013-07-12 10:23:00,
2013-07-12 06:28:00,76.7,73.5,29.90,NE,46,0.0,0.0,90,0.00,,,0.00,WeatherCatV1.15B25,2013-07-12 10:28:00,
2013-07-12 06:33:00,76.6,73.4,29.91,NE,46,0.0,0.0,90,0.00,,,0.00,WeatherCatV1.15B25,2013-07-12 10:33:00,
2013-07-12 06:38:00,76.5,73.3,29.91,NE,46,0.0,0.0,90,0.00,,,0.00,WeatherCatV1.15B25,2013-07-12 10:38:00,
2013-07-12 06:43:00,76.3,73.1,29.91,NE,46,0.0,0.0,90,0.00,,,0.00,WeatherCatV1.15B25,2013-07-12 10:43:00,
2013-07-12 06:48:00,76.2,73.4,29.91,NE,46,0.0,0.0,91,0.00,,,0.00,WeatherCatV1.15B25,2013-07-12 10:48:00,
2013-07-12 06:53:00,76.1,73.3,29.91,NE,46,0.0,0.0,91,0.00,,,0.00,WeatherCatV1.15B25,2013-07-12 10:53:00,
2013-07-12 06:58:00,76.0,73.2,29.91,NE,46,1.0,1.0,91,0.00,,,0.00,WeatherCatV1.15B25,2013-07-12 10:58:00,
2013-07-12 07:03:00,75.9,73.1,29.91,NE,46,0.0,0.0,91,0.00,,,0.00,WeatherCatV1.15B25,2013-07-12 11:03:00,
2013-07-12 07:08:00,75.9,73.4,29.92,NE,46,0.0,0.0,92,0.00,,,0.00,WeatherCatV1.15B25,2013-07-12 11:08:00,
2013-07-12 07:13:00,76.0,73.5,29.92,NE,46,0.0,0.0,92,0.00,,,0.00,WeatherCatV1.15B25,2013-07-12 11:13:00,
2013-07-12 07:18:00,76.2,73.7,29.92,NE,46,0.0,1.0,92,0.00,,,0.00,WeatherCatV1.15B25,2013-07-12 11:18:00,
2013-07-12 07:23:00,76.5,74.0,29.92,NE,46,0.0,1.0,92,0.00,,,0.00,WeatherCatV1.15B25,2013-07-12 11:23:00,
2013-07-12 07:28:00,76.9,74.4,29.92,NE,46,0.0,0.0,92,0.00,,,0.00,WeatherCatV1.15B25,2013-07-12 11:28:00,
2013-07-12 07:33:00,77.3,74.5,29.92,NE,46,0.0,0.0,91,0.00,,,0.00,WeatherCatV1.15B25,2013-07-12 11:33:00,
2013-07-12 07:38:00,77.6,74.4,29.92,ENE,57,1.0,1.0,90,0.00,,,0.00,WeatherCatV1.15B25,2013-07-12 11:38:00,
2013-07-12 07:43:00,77.8,74.6,29.92,ENE,59,0.0,0.0,90,0.00,,,0.00,WeatherCatV1.15B25,2013-07-12 11:43:00,
2013-07-12 07:48:00,77.9,74.4,29.92,ENE,59,0.0,0.0,89,0.00,,,0.00,WeatherCatV1.15B25,2013-07-12 11:48:00,
2013-07-12 07:53:00,78.2,75.0,29.92,ENE,59,0.0,1.0,90,0.00,,,0.00,WeatherCatV1.15B25,2013-07-12 11:53:00,
2013-07-12 07:58:00,78.9,75.4,29.92,ENE,59,0.0,0.0,89,0.00,,,0.00,WeatherCatV1.15B25,2013-07-12 11:58:00,
2013-07-12 08:03:00,79.8,75.6,29.93,ENE,59,1.0,1.0,87,0.00,,,0.00,WeatherCatV1.15B25,2013-07-12 12:03:00,
2013-07-12 08:08:00,80.7,75.8,29.93,ENE,59,0.0,1.0,85,0.00,,,0.00,WeatherCatV1.15B25,2013-07-12 12:08:00,
2013-07-12 08:13:00,81.6,76.3,29.93,ENE,59,0.0,0.0,84,0.00,,,0.00,WeatherCatV1.15B25,2013-07-12 12:13:00,
2013-07-12 08:18:00,82.3,76.2,29.93,ENE,59,0.0,1.0,82,0.00,,,0.00,WeatherCatV1.15B25,2013-07-12 12:18:00,
2013-07-12 08:23:00,82.8,76.4,29.93,ENE,59,0.0,0.0,81,0.00,,,0.00,WeatherCatV1.15B25,2013-07-12 12:23:00,
2013-07-12 08:28:00,83.0,76.2,29.93,ENE,59,0.0,1.0,80,0.00,,,0.00,WeatherCatV1.15B25,2013-07-12 12:28:00,
2013-07-12 08:33:00,83.1,75.9,29.93,ENE,59,0.0,0.0,79,0.00,,,0.00,WeatherCatV1.15B25,2013-07-12 12:33:00,
2013-07-12 08:38:00,83.0,75.0,29.93,ENE,57,0.0,0.0,77,0.00,,,0.00,WeatherCatV1.15B25,2013-07-12 12:38:00,
2013-07-12 08:43:00,82.7,73.9,29.93,NNE,29,2.0,2.0,75,0.00,,,0.00,WeatherCatV1.15B25,2013-07-12 12:43:00,
2013-07-12 08:48:00,82.5,74.1,29.93,NNE,27,0.0,0.0,76,0.00,,,0.00,WeatherCatV1.15B25,2013-07-12 12:48:00,
2013-07-12 08:53:00,82.3,74.3,29.94,NNE,27,0.0,1.0,77,0.00,,,0.00,WeatherCatV1.15B25,2013-07-12 12:53:00,
2013-07-12 08:58:00,82.1,73.4,29.94,NNE,27,0.0,0.0,75,0.00,,,0.00,WeatherCatV1.15B25,2013-07-12 12:58:00,
2013-07-12 09:03:00,82.0,74.1,29.94,NNE,27,0.0,0.0,77,0.00,,,0.00,WeatherCatV1.15B25,2013-07-12 13:03:00,
2013-07-12 09:08:00,82.3,74.3,29.94,NNE,27,1.0,1.0,77,0.00,,,0.00,WeatherCatV1.15B25,2013-07-12 13:08:00,
2013-07-12 09:13:00,82.9,74.1,29.93,NNE,17,0.0,4.0,75,0.00,,,0.00,WeatherCatV1.15B25,2013-07-12 13:13:00,
2013-07-12 09:18:00,83.6,74.4,29.94,NNE,17,0.0,2.0,74,0.00,,,0.00,WeatherCatV1.15B25,2013-07-12 13:18:00,
2013-07-12 09:23:00,84.4,74.4,29.94,North,350,1.0,2.0,72,0.00,,,0.00,WeatherCatV1.15B25,2013-07-12 13:23:00,
2013-07-12 09:28:00,85.1,74.6,29.93,North,350,0.0,0.0,71,0.00,,,0.00,WeatherCatV1.15B25,2013-07-12 13:28:00,
2013-07-12 09:33:00,86.0,76.3,29.93,NNW,336,0.0,4.0,73,0.00,,,0.00,WeatherCatV1.15B25,2013-07-12 13:33:00,
2013-07-12 09:38:00,86.5,76.4,29.94,NNW,336,0.0,0.0,72,0.00,,,0.00,WeatherCatV1.15B25,2013-07-12 13:38:00,
2013-07-12 09:43:00,86.4,75.4,29.94,NW,320,0.0,2.0,70,0.00,,,0.00,WeatherCatV1.15B25,2013-07-12 13:43:00,
2013-07-12 09:48:00,86.4,75.9,29.94,NW,312,1.0,3.0,71,0.00,,,0.00,WeatherCatV1.15B25,2013-07-12 13:48:00,
2013-07-12 09:53:00,86.9,75.9,29.94,SW,224,1.0,5.0,70,0.00,,,0.00,WeatherCatV1.15B25,2013-07-12 13:53:00,
2013-07-12 09:58:00,86.8,76.2,29.95,WSW,240,0.0,4.0,71,0.00,,,0.00,WeatherCatV1.15B25,2013-07-12 13:58:00,
2013-07-12 10:03:00,86.6,76.9,29.94,WSW,239,1.0,3.0,73,0.00,,,0.00,WeatherCatV1.15B25,2013-07-12 14:03:00,
2013-07-12 10:08:00,86.8,76.7,29.94,WSW,238,0.0,0.0,72,0.00,,,0.00,WeatherCatV1.15B25,2013-07-12 14:08:00,
2013-07-12 10:13:00,87.0,76.0,29.94,SW,236,0.0,1.0,70,0.00,,,0.00,WeatherCatV1.15B25,2013-07-12 14:13:00,
2013-07-12 10:18:00,87.5,76.0,29.94,SW,236,0.0,1.0,69,0.00,,,0.00,WeatherCatV1.15B25,2013-07-12 14:18:00,
2013-07-12 10:23:00,87.9,77.3,29.94,WSW,258,2.0,5.0,71,0.00,,,0.00,WeatherCatV1.15B25,2013-07-12 14:23:00,
2013-07-12 10:28:00,88.3,75.9,29.95,SW,223,1.0,3.0,67,0.00,,,0.00,WeatherCatV1.15B25,2013-07-12 14:28:00,
2013-07-12 10:33:00,88.2,76.3,29.95,WSW,250,2.0,2.0,68,0.00,,,0.00,WeatherCatV1.15B25,2013-07-12 14:33:00,
2013-07-12 10:38:00,87.9,76.4,29.95,West,267,0.0,1.0,69,0.00,,,0.00,WeatherCatV1.15B25,2013-07-12 14:38:00,
2013-07-12 10:43:00,87.4,75.5,29.95,WSW,253,0.0,2.0,68,0.00,,,0.00,WeatherCatV1.15B25,2013-07-12 14:43:00,
2013-07-12 10:48:00,87.2,75.8,29.95,West,267,0.0,1.0,69,0.00,,,0.00,WeatherCatV1.15B25,2013-07-12 14:48:00,
2013-07-12 10:53:00,86.8,75.8,29.95,West,278,0.0,1.0,70,0.00,,,0.00,WeatherCatV1.15B25,2013-07-12 14:53:00,
2013-07-12 10:58:00,86.5,75.5,29.95,West,267,0.0,0.0,70,0.00,,,0.00,WeatherCatV1.15B25,2013-07-12 14:58:00,
2013-07-12 11:03:00,86.5,75.5,29.95,SW,229,1.0,2.0,70,0.00,,,0.00,WeatherCatV1.15B25,2013-07-12 15:03:00,
2013-07-12 11:32:00,83.3,74.5,29.95,NNW,334,4.0,5.0,75,0.00,,,0.00,WeatherCatV1.15B25,2013-07-12 15:32:00,
2013-07-12 11:37:00,83.6,74.4,29.95,NNW,336,2.0,5.0,74,0.00,,,0.00,WeatherCatV1.15B25,2013-07-12 15:37:00,
2013-07-12 11:42:00,84.1,75.3,29.95,WNW,283,4.0,4.0,75,0.00,,,0.00,WeatherCatV1.15B25,2013-07-12 15:42:00,
2013-07-12 11:47:00,84.7,75.1,29.95,WNW,296,3.0,5.0,73,0.00,,,0.00,WeatherCatV1.15B25,2013-07-12 15:47:00,
2013-07-12 11:52:00,84.9,74.8,29.95,NNW,328,1.0,1.0,72,0.00,,,0.00,WeatherCatV1.15B25,2013-07-12 15:52:00,
2013-07-12 11:57:00,85.2,74.7,29.95,NNW,329,0.0,0.0,71,0.00,,,0.00,WeatherCatV1.15B25,2013-07-12 15:57:00,
2013-07-12 12:02:00,85.4,74.5,29.95,NNW,333,3.0,5.0,70,0.00,,,0.00,WeatherCatV1.15B25,2013-07-12 16:02:00,
2013-07-12 12:07:00,85.2,73.9,29.95,NNW,336,0.0,1.0,69,0.00,,,0.00,WeatherCatV1.15B25,2013-07-12 16:07:00,
2013-07-12 12:12:00,85.2,74.7,29.95,NNW,336,1.0,2.0,71,0.00,,,0.00,WeatherCatV1.15B25,2013-07-12 16:12:00,
2013-07-12 12:17:00,85.4,74.0,29.95,NNW,339,0.0,1.0,69,0.00,,,0.00,WeatherCatV1.15B25,2013-07-12 16:17:00,
2013-07-12 12:22:00,85.4,74.0,29.95,NNW,339,0.0,0.0,69,0.00,,,0.00,WeatherCatV1.15B25,2013-07-12 16:22:00,
2013-07-12 12:27:00,85.0,74.1,29.95,South,191,3.0,8.0,70,0.00,,,0.00,WeatherCatV1.15B25,2013-07-12 16:27:00,
2013-07-12 12:32:00,83.4,73.4,29.95,South,189,1.0,4.0,72,0.00,,,0.00,WeatherCatV1.15B25,2013-07-12 16:32:00,
2013-07-12 12:37:00,82.4,72.8,29.95,East,89,0.0,2.0,73,0.00,,,0.00,WeatherCatV1.15B25,2013-07-12 16:37:00,
2013-07-12 12:42:00,82.1,73.4,29.95,SSE,158,0.0,5.0,75,0.00,,,0.00,WeatherCatV1.15B25,2013-07-12 16:42:00,
2013-07-12 12:47:00,81.9,73.2,29.94,South,171,0.0,2.0,75,0.00,,,0.00,WeatherCatV1.15B25,2013-07-12 16:47:00,
2013-07-12 12:52:00,81.8,73.5,29.94,SE,139,0.0,2.0,76,0.00,,,0.00,WeatherCatV1.15B25,2013-07-12 16:52:00,
2013-07-12 12:57:00,81.6,72.9,29.94,SE,128,0.0,1.0,75,0.00,,,0.00,WeatherCatV1.15B25,2013-07-12 16:57:00,
2013-07-12 13:02:00,81.5,72.8,29.94,SSW,196,0.0,4.0,75,0.00,,,0.00,WeatherCatV1.15B25,2013-07-12 17:02:00,
2013-07-12 13:08:00,81.4,74.6,29.94,South,185,0.0,0.0,80,0.00,,,0.00,WeatherCatV1.15B25,2013-07-12 17:08:00,
2013-07-12 13:13:00,81.3,75.3,29.94,South,185,1.0,1.0,82,0.00,,,0.00,WeatherCatV1.15B25,2013-07-12 17:13:00,
2013-07-12 13:18:00,81.5,76.2,29.94,South,185,0.0,0.0,84,0.00,,,0.00,WeatherCatV1.15B25,2013-07-12 17:18:00,
2013-07-12 13:23:00,81.7,75.7,29.94,South,185,0.0,2.0,82,0.00,,,0.00,WeatherCatV1.15B25,2013-07-12 17:23:00,
2013-07-12 13:28:00,82.0,76.3,29.94,South,185,0.0,0.0,83,0.00,,,0.00,WeatherCatV1.15B25,2013-07-12 17:28:00,
2013-07-12 13:33:00,81.9,75.1,29.94,South,175,1.0,2.0,80,0.00,,,0.00,WeatherCatV1.15B25,2013-07-12 17:33:00,
2013-07-12 13:38:00,82.0,75.9,29.94,South,177,0.0,1.0,82,0.00,,,0.00,WeatherCatV1.15B25,2013-07-12 17:38:00,
2013-07-12 13:43:00,82.1,75.7,29.94,South,180,0.0,2.0,81,0.00,,,0.00,WeatherCatV1.15B25,2013-07-12 17:43:00,
2013-07-12 13:48:00,82.3,76.2,29.94,SW,236,2.0,3.0,82,0.00,,,0.00,WeatherCatV1.15B25,2013-07-12 17:48:00,
2013-07-12 13:53:00,82.3,75.9,29.93,South,186,0.0,4.0,81,0.00,,,0.00,WeatherCatV1.15B25,2013-07-12 17:53:00,
2013-07-12 13:58:00,82.5,76.8,29.93,SSE,166,0.0,0.0,83,0.00,,,0.00,WeatherCatV1.15B25,2013-07-12 17:58:00,
2013-07-12 14:03:00,82.6,75.8,29.93,WSW,240,0.0,4.0,80,0.00,,,0.00,WeatherCatV1.15B25,2013-07-12 18:03:00,
2013-07-12 14:08:00,82.9,76.1,29.93,WSW,244,1.0,4.0,80,0.00,,,0.00,WeatherCatV1.15B25,2013-07-12 18:08:00,
2013-07-12 14:13:00,83.0,76.2,29.93,SSW,203,3.0,6.0,80,0.00,,,0.00,WeatherCatV1.15B25,2013-07-12 18:13:00,
2013-07-12 14:18:00,83.2,76.0,29.92,WSW,242,1.0,2.0,79,0.00,,,0.00,WeatherCatV1.15B25,2013-07-12 18:18:00,
2013-07-12 14:23:00,83.4,76.2,29.92,WNW,286,0.0,3.0,79,0.00,,,0.00,WeatherCatV1.15B25,2013-07-12 18:23:00,
2013-07-12 14:28:00,83.5,75.1,29.92,SW,235,0.0,4.0,76,0.00,,,0.00,WeatherCatV1.15B25,2013-07-12 18:28:00,
2013-07-12 14:33:00,83.7,74.9,29.92,SW,234,1.0,2.0,75,0.00,,,0.00,WeatherCatV1.15B25,2013-07-12 18:33:00,
2013-07-12 14:38:00,83.9,75.1,29.92,WSW,257,3.0,3.0,75,0.00,,,0.00,WeatherCatV1.15B25,2013-07-12 18:38:00,
2013-07-12 14:43:00,84.1,75.3,29.92,WNW,297,6.0,6.0,75,0.00,,,0.00,WeatherCatV1.15B25,2013-07-12 18:43:00,
2013-07-12 14:48:00,84.4,75.6,29.92,WNW,292,1.0,6.0,75,0.00,,,0.00,WeatherCatV1.15B25,2013-07-12 18:48:00,
2013-07-12 14:53:00,84.7,75.9,29.92,WSW,248,1.0,2.0,75,0.00,,,0.00,WeatherCatV1.15B25,2013-07-12 18:53:00,
2013-07-12 14:58:00,85.2,75.5,29.92,WNW,296,4.0,5.0,73,0.00,,,0.00,WeatherCatV1.15B25,2013-07-12 18:58:00,
2013-07-12 15:03:00,85.7,75.2,29.92,WNW,300,1.0,7.0,71,0.00,,,0.00,WeatherCatV1.15B25,2013-07-12 19:03:00,
2013-07-12 15:08:00,85.9,75.8,29.92,WNW,291,7.0,8.0,72,0.00,,,0.00,WeatherCatV1.15B25,2013-07-12 19:08:00,
2013-07-12 15:13:00,86.0,75.9,29.92,WSW,248,3.0,5.0,72,0.00,,,0.00,WeatherCatV1.15B25,2013-07-12 19:13:00,
2013-07-12 15:18:00,86.3,76.2,29.91,SW,230,6.0,8.0,72,0.00,,,0.00,WeatherCatV1.15B25,2013-07-12 19:18:00,
2013-07-12 15:23:00,86.7,76.1,29.91,WNW,288,4.0,9.0,71,0.00,,,0.00,WeatherCatV1.15B25,2013-07-12 19:23:00,
2013-07-12 15:28:00,86.9,76.8,29.91,West,273,0.0,5.0,72,0.00,,,0.00,WeatherCatV1.15B25,2013-07-12 19:28:00,
2013-07-12 15:33:00,87.1,76.5,29.91,WSW,246,1.0,4.0,71,0.00,,,0.00,WeatherCatV1.15B25,2013-07-12 19:33:00,
2013-07-12 15:38:00,87.3,77.1,29.91,West,263,2.0,7.0,72,0.00,,,0.00,WeatherCatV1.15B25,2013-07-12 19:38:00,
2013-07-12 15:43:00,87.4,77.2,29.91,West,264,4.0,7.0,72,0.00,,,0.00,WeatherCatV1.15B25,2013-07-12 19:43:00,
2013-07-12 15:45:00,87.4,77.2,29.91,WSW,253,2.0,5.0,72,0.00,,,0.00,WeatherCatV1.15B25,2013-07-12 19:45:00,
2013-07-12 15:50:00,87.5,76.5,29.91,WSW,256,2.0,2.0,70,0.00,,,0.00,WeatherCatV1.15B25,2013-07-12 19:50:00,
2013-07-12 15:55:00,87.3,76.3,29.91,West,276,2.0,6.0,70,0.00,,,0.00,WeatherCatV1.15B25,2013-07-12 19:55:00,
2013-07-12 16:00:00,87.3,76.3,29.91,WSW,253,2.0,7.0,70,0.00,,,0.00,WeatherCatV1.15B25,2013-07-12 20:00:00,
2013-07-12 16:05:00,87.1,76.1,29.90,WSW,249,2.0,2.0,70,0.00,,,0.00,WeatherCatV1.15B25,2013-07-12 20:05:00,
2013-07-12 16:10:00,87.0,76.8,29.89,WSW,257,2.0,6.0,72,0.00,,,0.00,WeatherCatV1.15B25,2013-07-12 20:10:00,
2013-07-12 16:15:00,87.2,77.5,29.89,West,271,2.0,5.0,73,0.00,,,0.00,WeatherCatV1.15B25,2013-07-12 20:15:00,
2013-07-12 16:20:00,87.5,76.5,29.90,WSW,258,3.0,5.0,70,0.00,,,0.00,WeatherCatV1.15B25,2013-07-12 20:20:00,
2013-07-12 16:25:00,87.5,76.5,29.90,West,272,4.0,10.0,70,0.00,,,0.00,WeatherCatV1.15B25,2013-07-12 20:25:00,
2013-07-12 16:30:00,87.1,76.5,29.90,WNW,287,4.0,6.0,71,0.00,,,0.00,WeatherCatV1.15B25,2013-07-12 20:30:00,
2013-07-12 16:35:00,86.8,76.7,29.90,WNW,294,3.0,4.0,72,0.00,,,0.00,WeatherCatV1.15B25,2013-07-12 20:35:00,
2013-07-12 16:40:00,86.9,76.3,29.90,WNW,284,3.0,7.0,71,0.00,,,0.00,WeatherCatV1.15B25,2013-07-12 20:40:00,
2013-07-12 16:45:00,87.3,76.7,29.90,WNW,290,4.0,4.0,71,0.00,,,0.00,WeatherCatV1.15B25,2013-07-12 20:45:00,
2013-07-12 16:50:00,87.8,76.8,29.90,WNW,283,3.0,6.0,70,0.00,,,0.00,WeatherCatV1.15B25,2013-07-12 20:50:00,
2013-07-12 16:55:00,88.1,77.5,29.90,WNW,283,3.0,8.0,71,0.00,,,0.00,WeatherCatV1.15B25,2013-07-12 20:55:00,
2013-07-12 17:00:00,88.2,77.1,29.90,West,269,3.0,3.0,70,0.00,,,0.00,WeatherCatV1.15B25,2013-07-12 21:00:00,
2013-07-12 17:05:00,88.1,77.1,29.90,West,274,3.0,5.0,70,0.00,,,0.00,WeatherCatV1.15B25,2013-07-12 21:05:00,
2013-07-12 17:10:00,88.2,76.3,29.90,West,281,3.0,4.0,68,0.00,,,0.00,WeatherCatV1.15B25,2013-07-12 21:10:00,
2013-07-12 17:24:00,87.9,76.0,29.90,West,277,2.0,2.0,68,0.00,,,0.00,WeatherCatV1.15B25,2013-07-12 21:24:00,
2013-07-12 17:29:00,87.3,75.9,29.89,West,276,4.0,8.0,69,0.00,,,0.00,WeatherCatV1.15B25,2013-07-12 21:29:00,
2013-07-12 17:34:00,87.4,75.9,29.89,West,276,2.0,9.0,69,0.00,,,0.00,WeatherCatV1.15B25,2013-07-12 21:34:00,
2013-07-12 17:39:00,87.4,75.9,29.89,NNW,336,0.0,5.0,69,0.00,,,0.00,WeatherCatV1.15B25,2013-07-12 21:39:00,
2013-07-12 17:44:00,87.5,76.0,29.89,WSW,243,1.0,4.0,69,0.00,,,0.00,WeatherCatV1.15B25,2013-07-12 21:44:00,
2013-07-12 17:49:00,87.6,76.1,29.89,WSW,239,0.0,5.0,69,0.00,,,0.00,WeatherCatV1.15B25,2013-07-12 21:49:00,
2013-07-12 17:54:00,87.6,76.1,29.89,SSW,212,5.0,8.0,69,0.00,,,0.00,WeatherCatV1.15B25,2013-07-12 21:54:00,
2013-07-12 17:59:00,87.7,76.2,29.89,West,264,2.0,6.0,69,0.00,,,0.00,WeatherCatV1.15B25,2013-07-12 21:59:00,
2013-07-12 18:04:00,87.8,76.8,29.89,WSW,240,0.0,7.0,70,0.00,,,0.00,WeatherCatV1.15B25,2013-07-12 22:04:00,
2013-07-12 18:09:00,87.8,76.3,29.89,WNW,284,5.0,9.0,69,0.00,,,0.00,WeatherCatV1.15B25,2013-07-12 22:09:00,
2013-07-12 18:14:00,87.6,76.1,29.89,WNW,288,2.0,10.0,69,0.00,,,0.00,WeatherCatV1.15B25,2013-07-12 22:14:00,
2013-07-12 18:19:00,87.5,75.6,29.89,SW,236,0.0,2.0,68,0.00,,,0.00,WeatherCatV1.15B25,2013-07-12 22:19:00,
2013-07-12 18:24:00,87.5,75.6,29.89,SW,223,0.0,2.0,68,0.00,,,0.00,WeatherCatV1.15B25,2013-07-12 22:24:00,
2013-07-12 18:29:00,87.4,75.9,29.89,WNW,302,2.0,7.0,69,0.00,,,0.00,WeatherCatV1.15B25,2013-07-12 22:29:00,
2013-07-12 18:34:00,87.2,75.3,29.89,West,273,0.0,1.0,68,0.00,,,0.00,WeatherCatV1.15B25,2013-07-12 22:34:00,
2013-07-12 18:39:00,87.2,75.3,29.89,West,261,2.0,4.0,68,0.00,,,0.00,WeatherCatV1.15B25,2013-07-12 22:39:00,
2013-07-12 18:44:00,87.3,75.9,29.89,WSW,258,0.0,3.0,69,0.00,,,0.00,WeatherCatV1.15B25,2013-07-12 22:44:00,
2013-07-12 18:49:00,87.2,75.8,29.90,WSW,242,0.0,5.0,69,0.00,,,0.00,WeatherCatV1.15B25,2013-07-12 22:49:00,
2013-07-12 18:54:00,87.3,75.4,29.89,NW,313,4.0,5.0,68,0.00,,,0.00,WeatherCatV1.15B25,2013-07-12 22:54:00,
2013-07-12 18:59:00,87.3,75.4,29.90,WSW,251,2.0,5.0,68,0.00,,,0.00,WeatherCatV1.15B25,2013-07-12 22:59:00,
2013-07-12 19:04:00,87.1,75.2,29.90,West,267,0.0,5.0,68,0.00,,,0.00,WeatherCatV1.15B25,2013-07-12 23:04:00,
2013-07-12 19:09:00,87.0,75.1,29.91,WSW,238,0.0,0.0,68,0.00,,,0.00,WeatherCatV1.15B25,2013-07-12 23:09:00,
2013-07-12 19:14:00,86.8,75.4,29.90,West,263,1.0,3.0,69,0.00,,,0.00,WeatherCatV1.15B25,2013-07-12 23:14:00,
2013-07-12 19:19:00,86.7,75.7,29.90,WNW,289,0.0,3.0,70,0.00,,,0.00,WeatherCatV1.15B25,2013-07-12 23:19:00,
2013-07-12 19:24:00,86.7,75.3,29.90,WSW,244,3.0,5.0,69,0.00,,,0.00,WeatherCatV1.15B25,2013-07-12 23:24:00,
2013-07-12 19:29:00,86.6,75.2,29.91,WNW,294,3.0,4.0,69,0.00,,,0.00,WeatherCatV1.15B25,2013-07-12 23:29:00,
2013-07-12 19:34:00,86.3,74.9,29.90,West,267,1.0,6.0,69,0.00,,,0.00,WeatherCatV1.15B25,2013-07-12 23:34:00,
2013-07-12 19:39:00,85.9,75.4,29.90,WNW,294,0.0,1.0,71,0.00,,,0.00,WeatherCatV1.15B25,2013-07-12 23:39:00,
2013-07-12 19:44:00,85.8,75.3,29.91,West,276,0.0,4.0,71,0.00,,,0.00,WeatherCatV1.15B25,2013-07-12 23:44:00,
2013-07-12 19:49:00,85.6,75.1,29.91,West,277,0.0,1.0,71,0.00,,,0.00,WeatherCatV1.15B25,2013-07-12 23:49:00,
2013-07-12 19:54:00,85.6,75.1,29.91,WNW,292,2.0,5.0,71,0.00,,,0.00,WeatherCatV1.15B25,2013-07-12 23:54:00,
2013-07-12 19:59:00,85.5,75.4,29.91,WNW,289,2.0,5.0,72,0.00,,,0.00,WeatherCatV1.15B25,2013-07-12 23:59:00,
2013-07-12 20:04:00,85.3,74.8,29.91,West,262,1.0,1.0,71,0.00,,,0.00,WeatherCatV1.15B25,2013-07-13 00:04:00,
2013-07-12 20:09:00,85.0,74.9,29.91,West,261,0.0,1.0,72,0.00,,,0.00,WeatherCatV1.15B25,2013-07-13 00:09:00,
2013-07-12 20:14:00,84.7,74.2,29.91,West,261,0.0,1.0,71,0.00,,,0.00,WeatherCatV1.15B25,2013-07-13 00:14:00,
2013-07-12 20:19:00,84.5,74.5,29.91,West,261,0.0,1.0,72,0.00,,,0.00,WeatherCatV1.15B25,2013-07-13 00:19:00,
2013-07-12 20:24:00,84.4,74.4,29.91,West,261,0.0,0.0,72,0.00,,,0.00,WeatherCatV1.15B25,2013-07-13 00:24:00,
2013-07-12 20:29:00,84.2,74.2,29.91,West,261,1.0,2.0,72,0.00,,,0.00,WeatherCatV1.15B25,2013-07-13 00:29:00,
2013-07-12 20:34:00,83.9,73.5,29.91,ENE,67,0.0,5.0,71,0.00,,,0.00,WeatherCatV1.15B25,2013-07-13 00:34:00,
2013-07-12 20:39:00,83.4,73.4,29.91,ENE,68,0.0,3.0,72,0.00,,,0.00,WeatherCatV1.15B25,2013-07-13 00:39:00,
2013-07-12 20:44:00,82.8,73.2,29.91,ENE,77,1.0,1.0,73,0.00,,,0.00,WeatherCatV1.15B25,2013-07-13 00:44:00,
2013-07-12 20:49:00,82.4,72.8,29.91,ENE,76,0.0,2.0,73,0.00,,,0.00,WeatherCatV1.15B25,2013-07-13 00:49:00,
2013-07-12 20:54:00,82.1,73.0,29.92,ENE,73,1.0,5.0,74,0.00,,,0.00,WeatherCatV1.15B25,2013-07-13 00:54:00,
2013-07-12 20:59:00,81.7,72.6,29.91,East,92,1.0,2.0,74,0.00,,,0.00,WeatherCatV1.15B25,2013-07-13 00:59:00,
2013-07-12 21:04:00,81.4,72.7,29.92,NE,47,0.0,2.0,75,0.00,,,0.00,WeatherCatV1.15B25,2013-07-13 01:04:00,
2013-07-12 21:09:00,81.1,72.8,29.92,NE,49,0.0,2.0,76,0.00,,,0.00,WeatherCatV1.15B25,2013-07-13 01:09:00,
2013-07-12 21:14:00,80.9,73.0,29.92,NE,55,0.0,1.0,77,0.00,,,0.00,WeatherCatV1.15B25,2013-07-13 01:14:00,
2013-07-12 21:19:00,80.6,71.9,29.92,East,97,0.0,2.0,75,0.00,,,0.00,WeatherCatV1.15B25,2013-07-13 01:19:00,
2013-07-12 21:24:00,80.3,72.0,29.93,East,98,0.0,1.0,76,0.00,,,0.00,WeatherCatV1.15B25,2013-07-13 01:24:00,
2013-07-12 21:29:00,80.0,71.7,29.92,East,98,0.0,0.0,76,0.00,,,0.00,WeatherCatV1.15B25,2013-07-13 01:29:00,
2013-07-12 21:34:00,79.6,72.1,29.92,East,98,0.0,1.0,78,0.00,,,0.00,WeatherCatV1.15B25,2013-07-13 01:34:00,
2013-07-12 21:39:00,79.3,73.7,29.92,ENE,78,0.0,4.0,83,0.00,,,0.01,WeatherCatV1.15B25,2013-07-13 01:39:00,
2013-07-12 21:44:00,79.0,74.1,29.92,NE,56,0.0,0.0,85,0.00,,,0.01,WeatherCatV1.15B25,2013-07-13 01:44:00,
2013-07-12 21:49:00,78.7,74.1,29.93,NE,56,0.0,0.0,86,0.00,,,0.01,WeatherCatV1.15B25,2013-07-13 01:49:00,
2013-07-12 21:54:00,78.4,73.9,29.93,ESE,111,1.0,1.0,86,0.00,,,0.01,WeatherCatV1.15B25,2013-07-13 01:54:00,
2013-07-12 21:59:00,78.1,73.6,29.93,ESE,115,4.0,4.0,86,0.00,,,0.01,WeatherCatV1.15B25,2013-07-13 01:59:00,
2013-07-12 22:04:00,77.7,73.5,29.93,SSE,165,1.0,5.0,87,0.00,,,0.01,WeatherCatV1.15B25,2013-07-13 02:04:00,
2013-07-12 22:09:00,77.3,73.1,29.94,South,172,1.0,5.0,87,0.00,,,0.01,WeatherCatV1.15B25,2013-07-13 02:09:00,
2013-07-12 22:14:00,76.9,73.1,29.93,ESE,103,1.0,2.0,88,0.50,,,0.02,WeatherCatV1.15B25,2013-07-13 02:14:00,
2013-07-12 22:19:00,76.7,73.2,29.94,South,187,0.0,2.0,89,0.13,,,0.04,WeatherCatV1.15B25,2013-07-13 02:19:00,
2013-07-12 22:24:00,76.7,73.5,29.95,South,188,0.0,1.0,90,0.15,,,0.05,WeatherCatV1.15B25,2013-07-13 02:24:00,
2013-07-12 22:29:00,76.6,73.4,29.95,NW,322,0.0,1.0,90,0.27,,,0.07,WeatherCatV1.15B25,2013-07-13 02:29:00,
2013-07-12 22:34:00,76.5,73.3,29.94,NE,46,0.0,2.0,90,0.32,,,0.15,WeatherCatV1.15B25,2013-07-13 02:34:00,
2013-07-12 22:39:00,76.4,73.6,29.94,NNE,17,0.0,1.0,91,0.11,,,0.15,WeatherCatV1.15B25,2013-07-13 02:39:00,
2013-07-12 22:44:00,76.3,73.5,29.93,NNE,17,0.0,1.0,91,0.90,,,0.21,WeatherCatV1.15B25,2013-07-13 02:44:00,
2013-07-12 22:49:00,76.1,73.3,29.93,East,82,0.0,2.0,91,0.11,,,0.21,WeatherCatV1.15B25,2013-07-13 02:49:00,
2013-07-12 22:54:00,75.8,72.6,29.93,East,99,1.0,5.0,90,0.06,,,0.21,WeatherCatV1.15B25,2013-07-13 02:54:00,
2013-07-12 22:59:00,75.6,72.8,29.93,ESE,108,0.0,1.0,91,0.04,,,0.21,WeatherCatV1.15B25,2013-07-13 02:59:00,
2013-07-12 23:04:00,75.5,73.0,29.93,SE,142,0.0,1.0,92,0.00,,,0.21,WeatherCatV1.15B25,2013-07-13 03:04:00,
2013-07-12 23:09:00,75.4,72.9,29.93,East,88,0.0,0.0,92,0.00,,,0.21,WeatherCatV1.15B25,2013-07-13 03:09:00,
2013-07-12 23:14:00,75.5,73.0,29.93,East,88,0.0,0.0,92,0.00,,,0.21,WeatherCatV1.15B25,2013-07-13 03:14:00,
2013-07-12 23:19:00,75.4,72.9,29.93,East,88,0.0,0.0,92,0.00,,,0.21,WeatherCatV1.15B25,2013-07-13 03:19:00,
2013-07-12 23:24:00,75.5,73.0,29.93,East,88,0.0,0.0,92,0.00,,,0.22,WeatherCatV1.15B25,2013-07-13 03:24:00,
2013-07-12 23:29:00,75.5,73.3,29.94,East,88,0.0,0.0,93,0.00,,,0.22,WeatherCatV1.15B25,2013-07-13 03:29:00,
2013-07-12 23:34:00,75.4,72.9,29.94,East,88,0.0,0.0,92,0.00,,,0.22,WeatherCatV1.15B25,2013-07-13 03:34:00,
2013-07-12 23:39:00,75.3,72.8,29.93,East,88,0.0,0.0,92,0.00,,,0.22,WeatherCatV1.15B25,2013-07-13 03:39:00,
2013-07-12 23:44:00,75.3,73.1,29.93,East,88,0.0,0.0,93,0.00,,,0.22,WeatherCatV1.15B25,2013-07-13 03:44:00,
2013-07-12 23:49:00,75.3,73.1,29.93,East,88,0.0,0.0,93,0.00,,,0.22,WeatherCatV1.15B25,2013-07-13 03:49:00,
2013-07-12 23:54:00,75.1,72.9,29.93,East,88,0.0,1.0,93,0.00,,,0.22,WeatherCatV1.15B25,2013-07-13 03:54:00,
2013-07-12 23:59:00,75.1,72.9,29.93,East,88,0.0,0.0,93,0.00,,,0.22,WeatherCatV1.15B25,2013-07-13 03:59:00,